Other Public Products
Issued by NWS Grand Forks, ND

Home | Current Version | Previous Version | Text Only | Print | Product List | Glossary On
Versions: 1 2 3 4 5 6 7 8 9 10 11 12 13 14 15 16 17 18 19 20 21 22 23 24 25 26 27 28 29 30 31 32 33 34 35 36 37 38 39 40 41 42 43 44 45 46 47 48 49 50
251
FPUS83 KFGF 271631
OPUFGF
PRAIRIE TO PINES WEATHER ROUNDUP
NATIONAL WEATHER SERVICE EASTERN NORTH DAKOTA/GRAND FORKS ND
1100 AM CDT THU APR 27 2017

 **SATELLITE DATA USED TO AUGMENT SKY COVER AT AUTOMATED STATIONS**
 *****  WEATHER ACROSS EASTERN NORTH DAKOTA  *****

CITY           SKY/WX    TMP DP  RH WIND       PRES   REMARKS
GRAND FORKS    FAIR      32  24  72 NW9       29.71S WCI  24
GRAND FORKS AF CLOUDY    33  22  62 N12       29.71S WCI  24
GRAND CITY NWS NOT AVBL
BUXTON           N/A     31  26  81 N13         N/A  WCI  22
DEVILS LAKE    FAIR      37  20  50 N17G23    29.72F
FARGO          MIX PCPN  30  25  81 N16       29.69F WCI  19
WAHPETON ARPT  PTSUNNY   30  23  74 N17       29.69S WCI  18
$$

 *****  WEATHER ACROSS CENTRAL AND WESTERN NORTH DAKOTA  *****

CITY           SKY/WX    TMP DP  RH WIND       PRES   REMARKS
JAMESTOWN      FAIR      37  23  56 N16       29.70F
BISMARCK       FAIR      42  21  43 N10       29.74F
MINOT          FAIR      42  13  30 N13       29.77S
MINOT AFB      FAIR      40  12  32 NE12      29.76F
GARRISON       NOT AVBL
WILLISTON      FAIR      42  24  49 E7        29.76S
DICKINSON      FAIR      37  23  56 NE12G21   29.69F
HETTINGER      CLOUDY    33  25  72 E12       29.71F WCI  24
$$

 *****  OTHER OBSERVATIONS NORTHEAST NORTH DAKOTA  *****

CITY           SKY/WX    TMP DP  RH WIND       PRES   REMARKS
WALHALLA       NOT AVBL
LANGDON        FAIR      41  23  48 N21G29    29.70F
CAVALIER       FAIR      37  23  56 N16G23    29.71S
GRAFTON        FAIR      36  25  64 N13G20    29.73S
CANDO          NOT AVBL
FORT TOTTEN      N/A     37  19  48 N7        29.95
ROLLA          FAIR      37  16  41 N17G24    29.75S
RUGBY          NOT AVBL
 ***** THE ABOVE OBSERVATIONS ARE NON NWS ARE NOT QUALITY
        CONTROLLED AND MAY MIS-REPORT RAIN FOR SNOW...
$$

 *****  OTHER OBSERVATIONS SOUTHEAST NORTH DAKOTA *****

CITY           SKY/WX    TMP DP  RH WIND       PRES   REMARKS
COOPERSTOWN    FAIR      36  23  60 N16       29.70S
VALLEY CITY    FAIR      32  27  80 NW16      29.72R WCI  21
OAKES          NOT AVBL
GWINNER        MOSUNNY   30  23  74 MISG      29.71S
SHEYENNE NWR     N/A     30  21  69 N12       29.95S WCI  20
BUFFALO          N/A     30  21  67 SE10        N/A  WCI  21
WYNDMERE         N/A     30  25  80 N15         N/A  WCI  19
 ***** THE ABOVE OBSERVATIONS ARE NON NWS ARE NOT QUALITY
       CONTROLLED AND MAY MIS-REPORT RAIN FOR SNOW...
$$

  *****  WEATHER ACROSS NORTHERN MINNESOTA  *****

CITY           SKY/WX    TMP DP  RH WIND       PRES   REMARKS
FLAG ISLAND    LGT SNOW  25  21  86 N18       29.65S WCI  11
WARROAD        CLOUDY    27  21  80 N15       29.66F WCI  15
ROSEAU         CLOUDY    28  21  74 N16       29.66F WCI  17
HALLOCK        PTSUNNY   36  23  60 N16       29.69F
THF RVR FALLS  CLOUDY    30  21  69 N15       29.67S WCI  19
HALSTAD          N/A     29  23  78 N16         N/A  WCI  17
FOSSTON        CLOUDY    28  19  69 N15       29.65S WCI  17
BAUDETTE       CLOUDY    25  17  72 N13G21    29.61F WCI  14
WASKISH        CLOUDY    27  18  69 N14       29.61S WCI  15
CROOKSTON      CLOUDY    28  25  86 N14       29.70S WCI  17
$$
  *****  WEATHER ACROSS CENTRAL AND WEST MINNESOTA  *****

CITY           SKY/WX    TMP DP  RH WIND       PRES   REMARKS
BEMIDJI        CLOUDY    24  18  77 N13G25    29.60S WCI  13
PARK RAPIDS    CLOUDY    26  16  65 N18       29.59S WCI  13
WADENA         CLOUDY    25  21  86 N8        29.60R WCI  16
DETROIT LAKES  CLOUDY    28  23  80 N8G17     29.64S WCI  20
MOORHEAD       PTSUNNY   28  23  80 N7        29.70R WCI  21
FERGUS FALLS   CLOUDY    28  21  74 N14G24    29.66R WCI  17
ELBOW LAKE     CLOUDY    29  22  74 NW20G25   29.63S WCI  16
MORRIS MN      PTSUNNY   30  23  74 N17G25    29.63R WCI  18
STAPLES        CLOUDY    25  19  80 N14       29.59S WCI  13
WHEATON        CLOUDY    30  21  69 NW18G26   29.69S WCI  18
$$
  *****  WEATHER ELSEWHERE ACROSS MINNESOTA  *****

CITY           SKY/WX    TMP DP  RH WIND       PRES   REMARKS
DULUTH         CLOUDY    25  19  78 N14G23    29.49S WCI  13
INTRNTL FALLS  CLOUDY    24  15  68 N10       29.58F WCI  14
ELY            CLOUDY    23  16  74 NW8       29.50S WCI  14
CLOQUET        CLOUDY    25  19  80 NW10      29.52R WCI  15
BRAINERD       CLOUDY    26  20  77 NW14      29.58R WCI  14
HIBBING        CLOUDY    22  17  81 N15       29.53R WCI   9
ALEXANDRIA     CLOUDY    29  21  72 N12       29.61R WCI  19
SAINT CLOUD    CLOUDY    30  24  78 NW14      29.58R WCI  19
MINNEAPOLIS    CLOUDY    34  26  72 NW13      29.57R WCI  25
$$

  *****  WEATHER ACROSS SOUTH DAKOTA  *****

CITY           SKY/WX    TMP DP  RH WIND       PRES   REMARKS
SIOUX FALLS    CLOUDY    35  27  72 NW14      29.70R
BROOKINGS      CLOUDY    32  25  74 NW17      29.67R WCI  21
WATERTOWN      CLOUDY    29  24  82 NW18      29.66R WCI  16
HURON          CLOUDY    36  26  67 N14       29.73R
SISSETON         N/A     31  24  75 N22       29.68R WCI  18
ABERDEEN       CLOUDY    34  25  69 N15       29.73R WCI  24
MITCHELL       CLOUDY    39  26  59 N15       29.74R
PIERRE         CLOUDY    36  27  69 VRB3      29.72S
MOBRIDGE       CLOUDY    41  26  55 N12       29.69F
RAPID CITY     CLOUDY    40  32  73 VRB6      29.66S
$$

  *****  SOME WEATHER IN NEARBY STATES *****

CITY           SKY/WX    TMP DP  RH WIND       PRES   REMARKS
GLASGOW MT     CLOUDY    42  26  53 E14       29.68S
GREAT FALLS MT CLOUDY    43  36  76 NW7       29.66R
CHEYENNE WY    CLOUDY    42  39  89 SE8       29.56F
SCOTTSBLUFF NE CLOUDY    44  37  76 E9        29.57F
OMAHA NE       CLOUDY    42  31  64 N6        29.73S
DES MOINES IA  CLOUDY    40  30  67 NW14      29.70R
DAVENPORT IA   CLOUDY    40  35  83 W21G26    29.64R
CHICAGO IL     CLOUDY    47  39  74 SW21G29   29.53R
EAU CLAIRE WI  CLOUDY    34  28  79 NW13      29.50R WCI  25
LA CROSSE WI   LGT RAIN  40  33  76 W10       29.52R
$$

  *****  SOME NATIONAL WEATHER *****

CITY           SKY/WX    TMP DP  RH WIND       PRES   REMARKS
LA GUARDIA NY  CLOUDY    67  56  67 S8        29.90F
RALEIGH NC     PTSUNNY   78  61  55 SW14G22   29.90F
ATLANTA GA     CLOUDY    71  67  87 SW12      29.83R
NEW ORLEANS LA FAIR      69  60  73 N10       29.86R
OKLAHOMA CITY  PTSUNNY   58  46  64 S9        29.77F
ALBUQUERQUE NM PTSUNNY   63  29  27 W25G33    29.71F
SALT LAKE CITY FAIR      46  29  51 NW20G28   29.83S
LOS ANGELES CA PTSUNNY   64  57  78 W7        29.82S
BOISE ID       CLOUDY    44  30  57 NW21      29.94S
SEATTLE WA     PTSUNNY   47  39  74 S14       30.08R
$$

*** WEATHER ACROSS MANITOBA...SASKATCHEWAN AND ONTARIO ***
                ***ONTARIO***

CITY           SKY/WX    TMP DP  RH WIND       PRES   REMARKS
GERALDTON      SLEET     23  21  93 N12G20    29.44F VSB 1   WCI  12
THUNDER BAY    LGTSLEET  21  18  86 NW9       29.44F WCI  11
SIOUX LOOKOUT  FLURRIES  21  12  68 NE7       29.59F WCI  13
TORONTO        PTSUNNY   70  59  68 SE9G17    29.63F
BIG TROUT LK   PTSUNNY   27   3  36 NE13G24   29.91F WCI  16
PICKLE LAKE    LGT SNOW  19  14  79 NE15G21   29.64  DRFTSNOWWCI   5
DRYDEN         LGT SNOW  21  18  86 N9G18     29.58F WCI  11
KENORA         LGT SNOW  23  16  74 NE16G24   29.63F DRFTSNOWWCI  10
$$
                *** MANITOBA***

CITY           SKY/WX    TMP DP  RH WIND       PRES   REMARKS
BRANDON        MOSUNNY   37   9  30 NE16G24   29.81S
DAUPHIN        SUNNY     37  10  32 NE13      29.88S
ISLAND LAKE    PTSUNNY   34   1  25 NE10      29.97F
PILOT MOUND      N/A     37  14  38 N18         N/A
THE PAS        CLOUDY    34  16  47 N7        29.98S
THOMPSON       MOSUNNY   34   5  29 NE7       30.05F
WINNIPEG       PTSUNNY   37  19  48 N22       29.74F
LYNN LAKE      SUNNY     37  10  32 CALM      30.01F
CHURCHILL      SUNNY     30   7  37 SW6       30.12F WCI  24
GILLAM         MOSUNNY   34   3  27 E6        30.10F
$$
                ***SASKATCHEWAN***

CITY           SKY/WX    TMP DP  RH WIND       PRES   REMARKS
ESTEVAN        MOSUNNY   37  12  35 NE7       29.80S
KINDERSLEY     CLOUDY    34  32  93 SE12      29.71R
LLOYDMINSTER   LGT SNOW  30  30 100 E14       29.78S WCI  20
PRINCE ALBERT  PTSUNNY   39  19  45 SE10      29.88S
REGINA         MOSUNNY   39  16  38 E13G20    29.80S
YORKTON        SUNNY     41   7  24 NE14G20   29.84F



USA.gov is the U.S. government's official web portal to all federal, state and local government web resources and services.